Tacoma Narrows, WA
on Tuesday, December 11, 2012

Tuesday
Previous Day Next Day
Daily Summary
 ActualAverageRecord
Temperature
Mean Temperature °F °F  
Max Temperature 46°F 45°F 55°F (2010)
Min Temperature 42°F 38°F 28°F (2000)
Degree Days
Heating Degree Days 21    
Moisture
Dew Point 39°F   
Average Humidity 84    
Maximum Humidity 89    
Minimum Humidity 76    
Precipitation
Precipitation 0.12 in in in ()
Wind
Wind Speed 11 mph   
Max Wind Speed 21 mph   
Max Gust Speed 26 mph   
Visibility 10 miles   
Events Rain   
Averages and records for this station are not official NWS values.
Key: T is trace of precipitation, MM is missing value
Source: NWS Daily Summary
Seasonal Weather Averages
Time(PST)TemperatureDew PointHumidity Pressure Visibility Wind DirectionWind SpeedGust SpeedPrecipitationEvents Conditions
12:01 AM 42.8°F 39.2°F 87% 30.11 in 10.0 miles South 11.5 mph - N/A   Overcast
12:42 AM 42.8°F 39.2°F 87% 30.06 in 10.0 miles South 11.5 mph - N/A   Overcast
12:53 AM 43.0°F 39.9°F 89% 30.06 in 10.0 miles South 9.2 mph - N/A   Overcast
1:17 AM 42.8°F 39.2°F 87% 30.03 in 10.0 miles SSW 8.1 mph - N/A   Overcast
1:53 AM 43.0°F 39.0°F 86% 30.01 in 10.0 miles SSW 11.5 mph 18.4 mph N/A   Overcast
2:48 AM 42.8°F 39.2°F 87% 29.96 in 10.0 miles SSW 10.4 mph - N/A   Overcast
2:53 AM 42.1°F 39.0°F 89% 29.97 in 10.0 miles SSW 10.4 mph 17.3 mph N/A   Overcast
3:53 AM 43.0°F 39.0°F 86% 29.95 in 10.0 miles SW 10.4 mph 19.6 mph N/A   Overcast
4:38 AM 42.8°F 37.4°F 81% 29.91 in 10.0 miles South 9.2 mph - N/A   Overcast
4:53 AM 42.1°F 39.0°F 89% 29.91 in 10.0 miles South 10.4 mph - N/A   Overcast
5:08 AM 42.8°F 39.2°F 87% 29.89 in 10.0 miles South 13.8 mph - N/A   Overcast
5:48 AM 42.8°F 39.2°F 87% 29.86 in 10.0 miles South 12.7 mph - N/A   Overcast
5:53 AM 43.0°F 39.0°F 86% 29.87 in 10.0 miles South 12.7 mph - N/A   Overcast
6:21 AM 42.8°F 39.2°F 87% 29.85 in 10.0 miles South 12.7 mph 20.7 mph N/A   Overcast
6:37 AM 42.8°F 39.2°F 87% 29.84 in 8.0 miles South 13.8 mph - N/A   Overcast
6:53 AM 42.1°F 39.0°F 89% 29.84 in 10.0 miles South 11.5 mph - N/A   Overcast
7:12 AM 42.8°F 39.2°F 87% 29.81 in 10.0 miles South 15.0 mph - N/A   Overcast
7:53 AM 43.0°F 39.0°F 86% 29.79 in 10.0 miles South 11.5 mph - N/A   Overcast
8:04 AM 42.8°F 39.2°F 87% 29.78 in 10.0 miles South 11.5 mph 18.4 mph N/A   Overcast
8:53 AM 44.1°F 39.0°F 82% 29.76 in 10.0 miles South 8.1 mph - N/A   Overcast
9:53 AM 44.1°F 39.9°F 85% 29.74 in 10.0 miles SSW 10.4 mph 19.6 mph N/A   Overcast
10:53 AM 45.0°F 39.0°F 80% 29.71 in 10.0 miles South 15.0 mph 21.9 mph 0.01 in Rain Light Rain
11:53 AM 45.0°F 39.0°F 80% 29.66 in 10.0 miles South 13.8 mph 20.7 mph 0.00 in   Overcast
12:53 PM 46.0°F 39.0°F 76% 29.63 in 10.0 miles South 11.5 mph 19.6 mph 0.00 in Rain Light Rain
1:15 PM 44.6°F 39.2°F 81% 29.61 in 6.0 miles South 12.7 mph - 0.02 in Rain Light Rain
1:53 PM 45.0°F 39.9°F 82% 29.60 in 9.0 miles South 10.4 mph - 0.07 in Rain Light Rain
2:53 PM 44.1°F 39.0°F 82% 29.57 in 10.0 miles South 11.5 mph 21.9 mph 0.04 in Rain Light Rain
3:48 PM 44.6°F 39.2°F 81% 29.55 in 10.0 miles South 10.4 mph - 0.00 in   Overcast
3:53 PM 44.1°F 37.9°F 79% 29.56 in 10.0 miles South 10.4 mph - 0.00 in   Overcast
4:53 PM 44.1°F 37.9°F 79% 29.56 in 10.0 miles South 15.0 mph - N/A   Overcast
5:53 PM 44.1°F 37.9°F 79% 29.57 in 10.0 miles South 20.7 mph 26.5 mph N/A   Overcast
6:53 PM 43.0°F 37.9°F 82% 29.57 in 10.0 miles South 13.8 mph 20.7 mph N/A   Overcast
7:53 PM 43.0°F 39.0°F 86% 29.57 in 10.0 miles SSW 11.5 mph 18.4 mph N/A   Overcast
8:53 PM 44.1°F 39.0°F 82% 29.59 in 10.0 miles South 11.5 mph - N/A   Overcast
9:53 PM 43.0°F 39.0°F 86% 29.60 in 10.0 miles South 10.4 mph - N/A   Overcast
10:07 PM 42.8°F 39.2°F 87% 29.59 in 10.0 miles South 10.4 mph - N/A   Overcast
10:53 PM 43.0°F 39.0°F 86% 29.61 in 10.0 miles SSW 10.4 mph - N/A   Overcast
11:22 PM 44.6°F 39.2°F 81% 29.61 in 10.0 miles South 8.1 mph - N/A   Overcast
11:53 PM 43.0°F 39.0°F 86% 29.62 in 10.0 miles SSW 11.5 mph - N/A   Overcast
Moon Phase
Dec. 11 Dec. 13 Dec. 20 Dec. 28 Jan. 04
Sunrise:07:47 AM (PST) Moon Rise:05:45 AM (PST)12/11
Sunset:04:20 PM (PST) Moon Set:03:06 PM (PST)12/11

Copyright © 2014 The Weather Underground, Inc.